Location: Sollberg
(42.7389°N, 93.6369°W)
Time: 09:32:28
(UTC+00:00)

ISS - Pass Details

Date: 23 December 2025
Orbit: 414 x 424 km, 51.6° (Epoch: 14 January)

Event Time Altitude Azimuth Distance (km) Brightness Sun altitude
Exits shadow 12:24:53 16° 337° (NNW) 1,222 -1.8 -13.7°
Maximum altitude 12:26:07 18° 5° (N) 1,105 -1.8 -13.5°
Drops below altitude 10° 12:28:36 10° 52° (NE) 1,519 -0.5 -13.1°
Sets 12:31:10 0° 71° (ENE) 2,385 1.0 -12.6°
